Location: Fontevrault
(47.1823°N, 0.0493°E)
Time: 10:09:32
(UTC+00:00)

Cosmos 2263 Rocket - Pass Details

Date: 16 June 2021
Orbit: 822 x 850 km, 71.0° (Epoch: 02 August)

Event Time Altitude Azimuth Distance (km) Brightness Sun altitude
Rises 20:46:41 0° 328° (NNW) 3,419 7.4 -7.0°
Reaches altitude 10° 20:49:13 10° 323° (NW) 2,482 6.4 -7.3°
Maximum altitude 20:54:39 48° 251° (WSW) 1,104 3.0 -8.0°
Drops below altitude 10° 21:00:04 10° 179° (S) 2,469 4.2 -8.6°
Enters shadow 21:01:29 - 175° (S) 2,991 4.6 -8.7°
